Location: Columbia
(38.9520°N, 92.3340°W)
Time: 01:59:18
(UTC-05:00)

SJ-11-01 - Visible Passes

Search period start: 04 July 2015 00:00
Search period end: 14 July 2015 00:00
Orbit: 686 x 702 km, 98.2° (Epoch: 04 July)

Date Brightness Start Highest point End Pass type
(mag) Time Alt. Az. Time Alt. Az. Time Alt. Az.
04 Jul 7.0 22:40:29 10° WSW 22:42:25 12° W 22:44:03 10° WNW visible
05 Jul 5.2 21:39:59 10° S 21:44:30 48° W 21:49:04 10° NNW visible
06 Jul 6.7 22:21:41 10° SW 22:25:01 18° W 22:28:13 10° NW visible
07 Jul 4.5 21:22:38 10° S 21:27:19 74° WSW 21:32:03 10° NNW visible
08 Jul 6.1 22:03:40 10° SSW 22:07:42 28° W 22:11:42 10° NW visible
09 Jul 4.3 21:05:30 10° SSE 21:10:10 73° ENE 21:14:54 10° N visible
09 Jul 7.2 22:47:36 10° W 22:48:24 10° W 22:48:51 10° W visible
10 Jul 5.4 21:45:59 10° S 21:50:26 42° W 21:54:54 10° NNW visible
11 Jul 6.8 22:27:59 10° SW 22:30:59 16° W 22:33:48 10° NW visible
12 Jul 4.7 21:28:33 10° S 21:33:12 64° WSW 21:37:54 10° NNW visible
13 Jul 6.3 22:09:46 10° SSW 22:13:38 24° W 22:17:25 10° NW visible
